• In Deutschland
  • Länderverzeichnis
  • Für 7 Tage
  • Wassertemperatur
  • Satellitenkarten
  • Wetterkarte
  • Widgets
  • user-avatar
    Anmelden

    Stündliche Wetter Haßloch

    Heute, 13 Dezember, Mittwoch

    Zeit Temperatur Niederschläge Wind Luftdruck Luftfeuchtigkeit
    00:00 0°C° 0 mm 3 m/S 753 mmHg 90%
    01:00 +1°C° 0 mm 2 m/S 753 mmHg 91%
    02:00 0°C° 0 mm 3 m/S 753 mmHg 90%
    03:00 0°C° 0 mm 3 m/S 752 mmHg 89%
    04:00 0°C° 0 mm 3 m/S 752 mmHg 88%
    05:00 0°C° 0 mm 3 m/S 752 mmHg 86%
    06:00 0°C° 0 mm 4 m/S 751 mmHg 84%
    07:00 0°C° 0 mm 4 m/S 751 mmHg 82%
    08:00 0°C° 0 mm 4 m/S 751 mmHg 79%
    09:00 +1°C° 0 mm 5 m/S 750 mmHg 76%
    10:00 +1°C° 0 mm 5 m/S 749 mmHg 73%
    11:00 +2°C° 0,1 mm 6 m/S 748 mmHg 71%
    12:00 +2°C° 0,1 mm 6 m/S 747 mmHg 69%
    13:00 +3°C° 0,1 mm 6 m/S 746 mmHg 67%
    14:00 +3°C° 0,9 mm 6 m/S 745 mmHg 70%
    15:00 +3°C° 0,9 mm 6 m/S 744 mmHg 73%
    16:00 +3°C° 0,9 mm 7 m/S 743 mmHg 76%
    17:00 +3°C° 0,4 mm 7 m/S 743 mmHg 78%
    18:00 +3°C° 0,4 mm 7 m/S 742 mmHg 79%
    19:00 +4°C° 0,4 mm 7 m/S 741 mmHg 80%
    20:00 +4°C° 0,2 mm 7 m/S 740 mmHg 81%
    21:00 +4°C° 0,2 mm 7 m/S 738 mmHg 81%
    22:00 +5°C° 0,2 mm 8 m/S 737 mmHg 82%
    23:00 +5°C° 0,9 mm 8 m/S 737 mmHg 81%

    Morgen, 14 Dezember, Donnerstag

    Zeit Temperatur Niederschläge Wind Luftdruck Luftfeuchtigkeit
    00:00 +6°C° 0,9 mm 8 m/S 736 mmHg 81%
    01:00 +6°C° 0,9 mm 8 m/S 736 mmHg 81%
    02:00 +5°C° 0,4 mm 8 m/S 737 mmHg 79%
    03:00 +5°C° 0,4 mm 8 m/S 737 mmHg 78%
    04:00 +4°C° 0,4 mm 7 m/S 737 mmHg 77%
    05:00 +2°C° 0,4 mm 8 m/S 738 mmHg 73%
    06:00 +1°C° 0,4 mm 8 m/S 739 mmHg 69%
    07:00 +1°C° 0,4 mm 8 m/S 740 mmHg 65%
    08:00 +1°C° 0 mm 8 m/S 741 mmHg 66%
    09:00 +2°C° 0 mm 7 m/S 742 mmHg 67%
    10:00 +2°C° 0 mm 7 m/S 743 mmHg 68%
    11:00 +3°C° 0 mm 7 m/S 743 mmHg 67%
    12:00 +3°C° 0 mm 7 m/S 742 mmHg 65%
    13:00 +4°C° 0 mm 7 m/S 742 mmHg 64%
    14:00 +4°C° 0,1 mm 7 m/S 741 mmHg 66%
    15:00 +3°C° 0,1 mm 6 m/S 740 mmHg 67%
    16:00 +3°C° 0,1 mm 6 m/S 739 mmHg 69%
    17:00 +3°C° 0,5 mm 6 m/S 738 mmHg 72%
    18:00 +3°C° 0,5 mm 5 m/S 737 mmHg 75%
    19:00 +5°C° 0,5 mm 5 m/S 737 mmHg 79%
    20:00 +5°C° 0,4 mm 5 m/S 736 mmHg 80%
    21:00 +5°C° 0,4 mm 5 m/S 736 mmHg 81%
    22:00 +5°C° 0,4 mm 5 m/S 735 mmHg 82%
    23:00 +3°C° 0,5 mm 5 m/S 736 mmHg 83%

    übermorgen, 15 Dezember, Freitag

    Zeit Temperatur Niederschläge Wind Luftdruck Luftfeuchtigkeit
    00:00 +4°C° 0,5 mm 4 m/S 736 mmHg 83%
    01:00 +3°C° 0,5 mm 4 m/S 736 mmHg 83%
    02:00 +3°C° 0,1 mm 4 m/S 737 mmHg 83%
    03:00 +3°C° 0,1 mm 4 m/S 737 mmHg 83%
    04:00 +1°C° 0,1 mm 4 m/S 738 mmHg 82%
    05:00 +1°C° 0 mm 4 m/S 739 mmHg 84%
    06:00 +1°C° 0 mm 4 m/S 739 mmHg 85%
    07:00 0°C° 0 mm 4 m/S 740 mmHg 86%
    08:00 +1°C° 0,1 mm 4 m/S 740 mmHg 84%
    09:00 +1°C° 0,1 mm 5 m/S 740 mmHg 82%
    10:00 +1°C° 0,1 mm 5 m/S 740 mmHg 80%
    11:00 +2°C° 0 mm 5 m/S 740 mmHg 79%
    12:00 +2°C° 0 mm 5 m/S 740 mmHg 78%
    13:00 +3°C° 0 mm 5 m/S 740 mmHg 77%
    14:00 +4°C° 0 mm 4 m/S 740 mmHg 79%
    15:00 +4°C° 0 mm 4 m/S 740 mmHg 80%
    16:00 +4°C° 0 mm 3 m/S 739 mmHg 82%
    17:00 +3°C° 0,3 mm 3 m/S 740 mmHg 83%
    18:00 +3°C° 0,3 mm 3 m/S 740 mmHg 84%
    19:00 +3°C° 0,3 mm 3 m/S 740 mmHg 85%
    20:00 +3°C° 0,2 mm 3 m/S 740 mmHg 86%
    21:00 +3°C° 0,2 mm 3 m/S 741 mmHg 87%
    22:00 +2°C° 0,2 mm 3 m/S 741 mmHg 89%
    23:00 +2°C° 0 mm 3 m/S 741 mmHg 90%

    16 Dezember, Samstag

    Zeit Temperatur Niederschläge Wind Luftdruck Luftfeuchtigkeit
    00:00 +3°C° 0 mm 2 m/S 741 mmHg 90%
    01:00 +2°C° 0 mm 2 m/S 742 mmHg 91%
    02:00 +2°C° 0 mm 2 m/S 742 mmHg 91%
    03:00 +1°C° 0 mm 3 m/S 743 mmHg 90%
    04:00 +1°C° 0 mm 3 m/S 743 mmHg 90%
    05:00 +1°C° 0,1 mm 3 m/S 744 mmHg 89%
    06:00 +1°C° 0,1 mm 3 m/S 744 mmHg 88%
    07:00 0°C° 0,1 mm 4 m/S 745 mmHg 87%
    08:00 +1°C° 0,1 mm 4 m/S 746 mmHg 85%
    09:00 +1°C° 0,1 mm 4 m/S 746 mmHg 84%
    10:00 +1°C° 0,1 mm 5 m/S 747 mmHg 82%
    11:00 +1°C° 0,1 mm 5 m/S 748 mmHg 81%
    12:00 +1°C° 0,1 mm 5 m/S 748 mmHg 80%
    13:00 +2°C° 0,1 mm 5 m/S 749 mmHg 79%
    14:00 +1°C° 0,1 mm 4 m/S 749 mmHg 79%
    15:00 +1°C° 0,1 mm 4 m/S 750 mmHg 80%
    16:00 +1°C° 0,1 mm 4 m/S 750 mmHg 81%
    17:00 +1°C° 0 mm 4 m/S 751 mmHg 82%
    18:00 +1°C° 0 mm 4 m/S 751 mmHg 84%
    19:00 0°C° 0 mm 4 m/S 752 mmHg 85%
    20:00 0°C° 0,1 mm 4 m/S 753 mmHg 86%
    21:00 0°C° 0,1 mm 4 m/S 753 mmHg 87%
    22:00 0°C° 0,1 mm 4 m/S 754 mmHg 87%
    23:00 0°C° 0 mm 4 m/S 754 mmHg 88%

    17 Dezember, Sonntag

    Zeit Temperatur Niederschläge Wind Luftdruck Luftfeuchtigkeit
    00:00 +1°C° 0 mm 3 m/S 755 mmHg 89%
    01:00 +1°C° 0 mm 3 m/S 755 mmHg 89%
    02:00 0°C° 0 mm 3 m/S 755 mmHg 90%
    03:00 0°C° 0 mm 3 m/S 756 mmHg 91%
    04:00 0°C° 0 mm 3 m/S 756 mmHg 91%
    05:00 0°C° 0 mm 3 m/S 756 mmHg 91%
    06:00 +1°C° 0 mm 2 m/S 757 mmHg 92%
    07:00 -1°C° 0 mm 2 m/S 757 mmHg 92%
    08:00 +1°C° 0 mm 2 m/S 758 mmHg 91%
    09:00 0°C° 0 mm 3 m/S 759 mmHg 89%
    10:00 0°C° 0 mm 3 m/S 759 mmHg 88%
    11:00 +1°C° 0 mm 3 m/S 760 mmHg 86%
    12:00 +1°C° 0 mm 3 m/S 760 mmHg 85%
    13:00 +2°C° 0 mm 3 m/S 760 mmHg 83%
    14:00 +2°C° 0 mm 3 m/S 760 mmHg 84%
    15:00 +1°C° 0 mm 3 m/S 761 mmHg 84%
    16:00 +1°C° 0 mm 3 m/S 761 mmHg 85%
    17:00 +1°C° 0 mm 3 m/S 761 mmHg 85%
    18:00 +2°C° 0 mm 2 m/S 762 mmHg 86%
    19:00 +2°C° 0 mm 2 m/S 762 mmHg 86%
    20:00 +2°C° 0 mm 2 m/S 762 mmHg 86%
    21:00 +2°C° 0 mm 2 m/S 762 mmHg 86%
    22:00 +2°C° 0 mm 2 m/S 763 mmHg 86%
    23:00 +1°C° 0 mm 3 m/S 762 mmHg 87%

    18 Dezember, Montag

    Zeit Temperatur Niederschläge Wind Luftdruck Luftfeuchtigkeit
    00:00 0°C° 0 mm 3 m/S 762 mmHg 87%
    01:00 0°C° 0 mm 3 m/S 762 mmHg 87%
    02:00 0°C° 0 mm 3 m/S 762 mmHg 87%
    03:00 0°C° 0 mm 4 m/S 761 mmHg 86%
    04:00 0°C° 0 mm 4 m/S 761 mmHg 86%
    05:00 0°C° 0,2 mm 4 m/S 760 mmHg 86%
    06:00 0°C° 0,2 mm 4 m/S 760 mmHg 87%
    07:00 0°C° 0,2 mm 5 m/S 759 mmHg 88%
    08:00 +1°C° 0,7 mm 5 m/S 759 mmHg 87%
    09:00 +1°C° 0,7 mm 6 m/S 758 mmHg 87%
    10:00 +1°C° 0,7 mm 6 m/S 758 mmHg 87%
    11:00 +1°C° 1,1 mm 6 m/S 757 mmHg 87%
    12:00 +1°C° 1,1 mm 6 m/S 756 mmHg 87%
    13:00 +2°C° 1,1 mm 6 m/S 755 mmHg 88%
    14:00 +2°C° 0,6 mm 6 m/S 755 mmHg 89%
    15:00 +2°C° 0,6 mm 5 m/S 755 mmHg 91%
    16:00 +2°C° 0,6 mm 5 m/S 755 mmHg 92%
    17:00 +3°C° 0,2 mm 4 m/S 755 mmHg 93%
    18:00 +3°C° 0,2 mm 4 m/S 755 mmHg 94%
    19:00 +3°C° 0,2 mm 3 m/S 756 mmHg 94%
    20:00 +3°C° 0,1 mm 3 m/S 756 mmHg 95%
    21:00 +3°C° 0,1 mm 3 m/S 757 mmHg 95%
    22:00 +4°C° 0,1 mm 3 m/S 757 mmHg 96%
    23:00 +4°C° 0,1 mm 3 m/S 757 mmHg 95%
    Mehr zeigen